Find Starlink 3153

NORAD ID: 49431 Int'l Des: 2021-104 Owner: SPXS Country: US Constellation: starlink operational
LEOCIRCULAR

实时位置

正在加载3D地球...

关于 Starlink 3153

正在加载描述...

即将过境

Passes for default location (London). Set your location on the main map for personalized predictions.

高度历史

Loading altitude history...

两行轨道根数

1 49431U 21104Z 26106.60126692 .00000143 00000-0 27079-4 0 9993
2 49431 53.2175 59.1094 0001560 84.6537 275.4633 15.08840242244351
Epoch: Apr 16, 2026 • Age: 19 hours

当前状态

高度 547.4 km
速度 7.59 km/s
星下点 -24.77°S, 49.44°E
发射日期 Nov 13, 2021
运行时间 4.4 years
类型 internet

技术详情

分类 Payload
质量 290.00 kg
干质量 270.00 kg
总质量 290.00 kg
长度 0.20 m
直径 2.80 m
跨度 9.00 m
形状 Box + pan
制造商 SPXS
平台类型 Starlink
阶段状态 In Orbit
所有者/国家 SPXS/US

Most Searched